Weather in Viacheslavka

Ukraine / Zaporizhia Region     46°51′55″N   36°16′45″E
temp.,
°C
wind,
m/s
gust,
m/s
humid.,
%
clouds,
%
prec.,
mm/h
press.,
hPa
HPBL,
m
12 may, wed
wed1200:00+7nne34899 0.0 1013141
03:00+7ne128499 0.0 101397
06:00+8nw1180100 0.0 1013109
09:00+10s237018 0.0 1013624
12:00+13sse56638 0.0 10131027
15:00+14s45601 0.0 10131076
18:00+13sse456268 0.0 1013717
21:00+12sse588539 0.7 1013209
13 may, thu
thu1300:00+12sse578773 0.0 1012199
03:00+11sse22835 0.0 101298
06:00+11e23815 0.0 1013133
09:00+16se346053 0.0 1013479
12:00+18se4454100 0.0 1013477
15:00+18ese4563100 0.0 1013400
18:00+18e476872 0.0 1012283
21:00+15ene598112 0.0 1012133
14 may, fri
fri1400:00+15e58905 0.0 1010113
03:00+15e46930 0.0 101095
06:00+15e4596100 0.0 101095
09:00+19ese3481100 0.0 1010264
12:00+20se4475100 0.0 1011315
15:00+20sse336860 0.1 1011328
18:00+19sw336977 0.1 1010154
21:00+15ssw22830 0.2 101011
15 may, sat
sat1500:00+15w226762 0.1 101111
03:00+15nw3573100 0.1 101266
06:00+14wnw468252 0.0 1012109
09:00+20wnw335829 0.0 1013334
12:00+22sw43525 0.0 1013864
15:00+21ssw44606 0.0 1013534
18:00+19sw456511 0.0 1012148
21:00+16wsw1170100 0.0 101211
16 may, sun
sun1600:00+16nne226678 0.0 101211
03:00+16nne3378100 0.0 101133
06:00+16ne4878100 0.0 1010125
09:00+20e4767100 0.0 1009308
12:00+23e6758100 0.0 1008798
15:00+25e796066 0.0 1006870
18:00+24e712615 0.0 1004549
21:00+19ene5117599 0.0 1003183